E22ZMG-3 Weather Reports


time (UTC)temp
F
wind
direction
speed
knots
gust
knots
rain 1hr
in
rain 24hr
in
rain mn
in
humidity
%
barometer
mb
20260509034038 95 0 0.0 0.0 0.00 0.00 0.00 51 979.0
20260509034036 95 0 0.0 0.0 0.00 0.00 0.00 51 979.0
20260509033011 94 0 0.0 0.0 0.00 0.00 0.00 54 979.0
20260509031946 93 0 0.0 0.0 0.00 0.00 0.00 56 980.0
20260509030922 93 0 0.0 0.0 0.00 0.00 0.00 57 980.0
20260509025857 90 0 0.0 0.0 0.00 0.00 0.00 60 980.0
20260509024832 91 0 0.0 0.0 0.00 0.00 0.00 61 980.0
20260509023807 90 0 0.0 0.0 0.00 0.00 0.00 62 980.0
20260509022742 90 0 0.0 0.0 0.00 0.00 0.00 62 980.0
20260509021717 89 0 0.0 0.0 0.00 0.00 0.00 65 980.0
20260509020653 88 0 0.0 0.0 0.00 0.00 0.00 66 980.0
20260509015628 89 0 0.0 0.0 0.00 0.00 0.00 64 980.0
20260509014604 88 0 0.0 0.0 0.00 0.00 0.00 65 980.0
20260509013538 88 0 0.0 0.0 0.00 0.00 0.00 67 980.0
20260509012514 86 0 0.0 0.0 0.00 0.00 0.00 70 980.0
20260509011450 85 0 0.0 0.0 0.00 0.00 0.00 72 980.0
20260509010423 87 0 0.0 0.0 0.00 0.00 0.00 67 980.0
20260509005357 87 0 0.0 0.0 0.00 0.00 0.00 68 980.0
20260509004332 87 0 0.0 0.0 0.00 0.00 0.00 66 980.0
20260509003311 86 0 0.0 0.0 0.00 0.00 0.00 67 980.0
20260509003307 86 0 0.0 0.0 0.00 0.00 0.00 67 980.0
20260509002242 86 0 0.0 0.0 0.00 0.00 0.00 67 980.0
20260509001218 86 0 0.0 0.0 0.00 0.00 0.00 65 979.0
20260509000153 86 0 0.0 0.0 0.00 0.00 0.00 65 979.0
20260508235127 87 0 0.0 0.0 0.00 0.00 0.00 64 979.0
20260508234102 86 0 0.0 0.0 0.00 0.00 0.00 65 979.0
20260508233037 87 0 0.0 0.0 0.00 0.00 0.00 62 979.0
20260508232012 87 0 0.0 0.0 0.00 0.00 0.00 62 978.0
20260508230948 88 0 0.0 0.0 0.00 0.00 0.00 60 978.0
20260508225924 88 0 0.0 0.0 0.00 0.00 0.00 59 978.0
20260508224859 87 0 0.0 0.0 0.00 0.00 0.00 60 978.0
20260508223835 88 0 0.0 0.0 0.00 0.00 0.00 59 978.0
20260508222810 88 0 0.0 0.0 0.00 0.00 0.00 59 978.0
20260508221745 87 0 0.0 0.0 0.00 0.00 0.00 60 978.0
20260508220721 86 0 0.0 0.0 0.00 0.00 0.00 60 978.0
20260508215656 88 0 0.0 0.0 0.00 0.00 0.00 59 978.0
20260508214632 87 0 0.0 0.0 0.00 0.00 0.00 59 978.0
20260508213608 89 0 0.0 0.0 0.00 0.00 0.00 57 978.0
20260508212543 88 0 0.0 0.0 0.00 0.00 0.00 58 978.0
20260508211518 89 0 0.0 0.0 0.00 0.00 0.00 57 978.0
20260508210454 89 0 0.0 0.0 0.00 0.00 0.00 57 977.0
20260508205429 90 0 0.0 0.0 0.00 0.00 0.00 56 977.0
20260508204404 88 0 0.0 0.0 0.00 0.00 0.00 58 977.0
20260508203340 88 0 0.0 0.0 0.00 0.00 0.00 58 977.0
20260508202315 87 0 0.0 0.0 0.00 0.00 0.00 58 977.0
20260508201250 88 0 0.0 0.0 0.00 0.00 0.00 57 977.0
20260508200226 89 0 0.0 0.0 0.00 0.00 0.00 57 977.0
20260508195201 86 0 0.0 0.0 0.00 0.00 0.00 61 977.0
20260508194136 85 0 0.0 0.0 0.00 0.00 0.00 63 977.0
20260508193111 85 0 0.0 0.0 0.00 0.00 0.00 63 977.0
20260508192047 85 0 0.0 0.0 0.00 0.00 0.00 63 977.0
20260508191022 86 0 0.0 0.0 0.00 0.00 0.00 61 977.0
20260508185957 85 0 0.0 0.0 0.00 0.00 0.00 62 977.0
20260508185845 85 0 0.0 0.0 0.00 0.00 0.00 63 977.0
20260508184821 85 0 0.0 0.0 0.00 0.00 0.00 62 977.0
20260508183756 87 0 0.0 0.0 0.00 0.00 0.00 58 977.0
20260508182731 86 0 0.0 0.0 0.00 0.00 0.00 60 977.0
20260508181706 86 0 0.0 0.0 0.00 0.00 0.00 61 977.0
20260508180642 85 0 0.0 0.0 0.00 0.00 0.00 63 977.0
20260508175617 86 0 0.0 0.0 0.00 0.00 0.00 60 978.0
20260508174552 85 0 0.0 0.0 0.00 0.00 0.00 64 978.0
20260508173526 86 0 0.0 0.0 0.00 0.00 0.00 62 978.0
20260508172501 85 0 0.0 0.0 0.00 0.00 0.00 63 978.0
20260508171436 86 0 0.0 0.0 0.00 0.00 0.00 62 978.0
20260508170412 86 0 0.0 0.0 0.00 0.00 0.00 62 978.0
20260508165347 85 0 0.0 0.0 0.00 0.00 0.00 62 978.0
20260508164335 86 0 0.0 0.0 0.00 0.00 0.00 61 978.0
20260508164323 86 0 0.0 0.0 0.00 0.00 0.00 61 978.0
20260508163259 86 0 0.0 0.0 0.00 0.00 0.00 61 978.0
20260508162240 88 0 0.0 0.0 0.00 0.00 0.00 57 978.0
20260508162235 88 0 0.0 0.0 0.00 0.00 0.00 57 978.0
20260508161210 88 0 0.0 0.0 0.00 0.00 0.00 55 978.0
20260508160145 89 0 0.0 0.0 0.00 0.00 0.00 53 978.0
20260508155121 90 0 0.0 0.0 0.00 0.00 0.00 52 978.0
20260508154056 90 0 0.0 0.0 0.00 0.00 0.00 53 978.0
20260508153030 89 0 0.0 0.0 0.00 0.00 0.00 55 978.0
20260508152306 91 0 0.0 0.0 0.00 0.00 0.00 52 978.0
20260508151242 91 0 0.0 0.0 0.00 0.00 0.00 52 978.0
20260508150217 93 0 0.0 0.0 0.00 0.00 0.00 50 977.0
20260508145152 93 0 0.0 0.0 0.00 0.00 0.00 50 977.0
20260508144126 94 0 0.0 0.0 0.00 0.00 0.00 48 977.0
20260508143101 93 0 0.0 0.0 0.00 0.00 0.00 49 976.0
20260508142034 94 0 0.0 0.0 0.00 0.00 0.00 47 976.0
20260508141359 95 0 0.0 0.0 0.00 0.00 0.00 46 976.0
20260508140334 94 0 0.0 0.0 0.00 0.00 0.00 47 976.0
20260508135309 95 0 0.0 0.0 0.00 0.00 0.00 45 976.0
20260508134243 95 0 0.0 0.0 0.00 0.00 0.00 46 975.0
20260508133219 95 0 0.0 0.0 0.00 0.00 0.00 44 975.0
20260508132154 95 0 0.0 0.0 0.00 0.00 0.00 44 975.0
20260508131129 96 0 0.0 0.0 0.00 0.00 0.00 43 975.0
20260508130105 97 0 0.0 0.0 0.00 0.00 0.00 42 975.0
20260508125040 96 0 0.0 0.0 0.00 0.00 0.00 44 974.0
20260508124015 97 0 0.0 0.0 0.00 0.00 0.00 43 974.0
20260508122951 97 0 0.0 0.0 0.00 0.00 0.00 42 974.0
20260508121926 97 0 0.0 0.0 0.00 0.00 0.00 42 974.0
20260508121241 96 0 0.0 0.0 0.00 0.00 0.00 44 974.0
20260508120216 100 0 0.0 0.0 0.00 0.00 0.00 43 974.0
20260508115152 100 0 0.0 0.0 0.00 0.00 0.00 42 974.0
20260508114127 100 0 0.0 0.0 0.00 0.00 0.00 41 973.0
20260508113103 101 0 0.0 0.0 0.00 0.00 0.00 40 973.0
20260508112038 102 0 0.0 0.0 0.00 0.00 0.00 41 973.0
20260508111014 100 0 0.0 0.0 0.00 0.00 0.00 41 973.0
20260508105950 102 0 0.0 0.0 0.00 0.00 0.00 40 973.0
20260508104927 101 0 0.0 0.0 0.00 0.00 0.00 41 973.0
20260508104925 101 0 0.0 0.0 0.00 0.00 0.00 41 973.0
20260508103900 101 0 0.0 0.0 0.00 0.00 0.00 39 972.0
20260508102837 103 0 0.0 0.0 0.00 0.00 0.00 38 972.0
20260508102835 103 0 0.0 0.0 0.00 0.00 0.00 38 972.0
20260508101810 102 0 0.0 0.0 0.00 0.00 0.00 38 972.0
20260508100745 103 0 0.0 0.0 0.00 0.00 0.00 37 972.0
20260508095728 104 0 0.0 0.0 0.00 0.00 0.00 35 972.0
20260508095723 104 0 0.0 0.0 0.00 0.00 0.00 35 972.0
20260508095721 104 0 0.0 0.0 0.00 0.00 0.00 35 972.0
20260508094657 104 0 0.0 0.0 0.00 0.00 0.00 36 972.0
20260508093633 104 0 0.0 0.0 0.00 0.00 0.00 34 972.0
20260508093631 104 0 0.0 0.0 0.00 0.00 0.00 34 972.0
20260508092606 105 0 0.0 0.0 0.00 0.00 0.00 33 972.0
20260508091856 104 0 0.0 0.0 0.00 0.00 0.00 34 972.0
20260508090831 104 0 0.0 0.0 0.00 0.00 0.00 34 972.0
20260508085808 104 0 0.0 0.0 0.00 0.00 0.00 34 972.0
20260508084742 105 0 0.0 0.0 0.00 0.00 0.00 33 972.0
20260508083718 105 0 0.0 0.0 0.00 0.00 0.00 33 973.0
20260508082654 103 0 0.0 0.0 0.00 0.00 0.00 36 973.0
20260508081629 104 0 0.0 0.0 0.00 0.00 0.00 34 973.0
20260508080605 102 0 0.0 0.0 0.00 0.00 0.00 36 973.0
20260508075539 102 0 0.0 0.0 0.00 0.00 0.00 37 973.0
20260508074514 101 0 0.0 0.0 0.00 0.00 0.00 38 974.0
20260508073450 100 0 0.0 0.0 0.00 0.00 0.00 39 974.0
20260508072426 100 0 0.0 0.0 0.00 0.00 0.00 38 974.0
20260508071401 101 0 0.0 0.0 0.00 0.00 0.00 38 974.0
20260508070348 99 0 0.0 0.0 0.00 0.00 0.00 41 974.0
20260508070337 99 0 0.0 0.0 0.00 0.00 0.00 41 974.0
20260508065312 98 0 0.0 0.0 0.00 0.00 0.00 42 975.0
20260508064247 100 0 0.0 0.0 0.00 0.00 0.00 40 975.0
20260508063222 99 0 0.0 0.0 0.00 0.00 0.00 41 975.0
20260508062157 99 0 0.0 0.0 0.00 0.00 0.00 41 976.0
20260508061132 97 0 0.0 0.0 0.00 0.00 0.00 44 976.0
20260508060107 97 0 0.0 0.0 0.00 0.00 0.00 48 976.0
20260508055042 96 0 0.0 0.0 0.00 0.00 0.00 48 976.0
20260508054018 96 0 0.0 0.0 0.00 0.00 0.00 48 977.0
20260508052953 97 0 0.0 0.0 0.00 0.00 0.00 48 977.0
20260508052726 95 0 0.0 0.0 0.00 0.00 0.00 50 977.0
20260508051701 94 0 0.0 0.0 0.00 0.00 0.00 51 977.0
20260508050636 95 0 0.0 0.0 0.00 0.00 0.00 48 978.0
20260508045611 91 0 0.0 0.0 0.00 0.00 0.00 54 978.0
20260508044547 93 0 0.0 0.0 0.00 0.00 0.00 53 978.0
20260508043522 92 0 0.0 0.0 0.00 0.00 0.00 56 978.0
20260508042457 92 0 0.0 0.0 0.00 0.00 0.00 55 978.0
20260508041431 91 0 0.0 0.0 0.00 0.00 0.00 57 979.0
20260508040405 90 0 0.0 0.0 0.00 0.00 0.00 58 979.0
20260508035340 88 0 0.0 0.0 0.00 0.00 0.00 61 979.0